This demonstration page uses our WeatherBlox Daily Observations layout. Learn more.

Left ArrowRight Arrow

36.17497, -115.13722

Hourly Observations for May 13, 2016

Temp ( °F °C ) Dew Point ( °F °C ) Humidity (%) Winds ( mph kmh ) Pressure ( in mb ) Visibility ( mi km ) Precip ( " mm )
12:53 am 00:53 Clear 73 22.8 33 0.6 23 23 NW 6 9 29.98 1015 10 16.0934 0 0
1:53 am 01:53 Clear 72 22.2 34 1.1 25 25 N 5 7 29.98 1015 10 16.0934 0 0
2:53 am 02:53 Clear 70 21.1 35 1.7 28 28 N 3 6 29.98 1015 10 16.0934 0 0
3:53 am 03:53 Clear 68 20 36 2.2 31 31 Calm 29.98 1015 10 16.0934 0 0
4:53 am 04:53 Clear 67 19.4 36 2.2 32 32 NW 3 6 29.98 1015 10 16.0934 0 0
5:53 am 05:53 Sunny 66 18.9 36 2.2 33 33 WNW 6 9 29.99 1016 10 16.0934 0 0
6:53 am 06:53 Sunny 70 21.1 34 1.1 27 27 Calm 30 1016 10 16.0934 0 0
7:53 am 07:53 Sunny 75 23.9 35 1.7 23 23 Calm 30.01 1016 10 16.0934 0 0
8:53 am 08:53 Sunny 78 25.6 35 1.7 21 21 SE 5 7 30.01 1016 10 16.0934 0 0
9:53 am 09:53 Sunny 83 28.3 29 -1.7 14 14 ESE 7 11 30.02 1017 10 16.0934 0 0
10:53 am 10:53 Sunny 86 30 29 -1.7 13 13 ESE 7 11 30.01 1016 10 16.0934 0 0
11:53 am 11:53 Sunny 90 32.2 29 -1.7 11 11 E 6 9 29.98 1015 10 16.0934 0 0
12:53 pm 12:53 Sunny 93 33.9 28 -2.2 10 10 SSE 13 20 29.96 1015 10 16.0934 0 0
1:53 pm 13:53 Sunny 94 34.4 28 -2.2 9 9 S 10 17 29.93 1014 10 16.0934 0 0
2:15 pm 14:15 Sunny 93 33.9 29 -1.7 10 10 VRB 7 11 29.77 1008 10 16.0934 0 0
2:53 pm 14:53 Sunny 95 35 30 -1.1 10 10 S 9 15 29.9 1013 10 16.0934 0 0
3:53 pm 15:53 Sunny 95 35 29 -1.7 9 9 VRB 3 6 29.88 1012 10 16.0934 0 0
4:53 pm 16:53 Sunny 96 35.6 28 -2.2 9 9 E 8 13 29.85 1011 10 16.0934 0 0
5:53 pm 17:53 Sunny 97 36.1 26 -3.3 8 8 S 9 15 29.83 1010 10 16.0934 0 0
6:53 pm 18:53 Sunny 95 35 27 -2.8 9 9 SSW 16 26 29.83 1010 10 16.0934 0 0
7:53 pm 19:53 Clear 92 33.3 24 -4.4 8 8 SSE 17 28 29.82 1010 10 16.0934 0 0
8:53 pm 20:53 Clear 90 32.2 26 -3.3 10 10 S 9 15 29.83 1010 10 16.0934 0 0
9:53 pm 21:53 Clear 88 31.1 26 -3.3 10 10 SSW 8 13 29.85 1011 10 16.0934 0 0
10:53 pm 22:53 Clear 86 30 25 -3.9 11 11 S 10 17 29.85 1011 10 16.0934 0 0
11:53 pm 23:53 Clear 83 28.3 27 -2.8 13 13 SW 6 9 29.84 1011 10 16.0934 0 0

Powered by AerisWeather